Regional Weather Roundup
Issued by NWS State College, PA

Home | Current Version | Previous Version | Graphics & Text | Print | Product List | Glossary Off
Versions: 1 2 3 4 5 6 7 8 9 10 11 12 13 14 15 16 17 18 19 20 21 22 23 24 25 26 27 28 29 30 31 32 33 34 35 36 37 38 39 40 41 42 43 44 45 46 47 48 49 50

000
ASUS41 KCTP 291110
RWRCTP

REGIONAL WEATHER ROUNDUP
NATIONAL WEATHER SERVICE STATE COLLEGE PA
700 AM EDT MON AUG 29 2016

Note: "fair" indicates few or no clouds below 12,000 feet with no
significant weather and/or obstructions to visibility.

* = STATION THAT DOES NOT REPORT PRECIPITATION /E.G. RAIN...SNOW...ETC/
    THUNDER OR FOG.

PAZ002>004-007>009-013>016-020>023-029>032-291200-
WESTERN PENNSYLVANIA

CITY           SKY/WX    TMP DP  RH WIND       PRES   REMARKS
ERIE           CLEAR     71  60  68 NE7       30.24R
MEADVILLE      CLEAR     66  64  93 N8        30.26R
FRANKLIN*        N/A     66  63  88 N6        30.25R
NEW CASTLE     CLOUDY    68  68 100 N5        30.24R FOG
BEAVER COUNTY  CLEAR     66  66 100 N6        30.22  FOG
BUTLER*        NOT AVBL
PITTSBURGH INT PTCLDY    67  64  90 CALM      30.21R
PITTSBURGH     FOG       68  66  93 CALM      30.21R VSB<1/4
INDIANA*       FOG       64  64 100 CALM      30.26R VSB 0
LATROBE        FOG       64  64 100 CALM      30.23R VSB 1/4
WASHINGTON CO* CLOUDY    64  63  94 CALM      30.23R VSB<1/4
$$

PAZ004>006-010>012-017>019-024>028-033>037-041-042-045-046-049>053-291200-
CENTRAL PENNSYLVANIA

CITY           SKY/WX    TMP DP  RH WIND       PRES   REMARKS
BRADFORD       PTCLDY    66  64  93 N6        30.26R
DUBOIS         FOG       67  65  93 N5        30.24R VSB 3/4
CLEARFIELD     NOT AVBL
JOHNSTOWN      CLEAR     63  63 100 CALM      30.26R FOG
ALTOONA        FOG       63  63 100 CALM      30.24R VSB<1/4
STATE COLLEGE  MOCLDY    64  64 100 CALM      30.22R
WILLIAMSPORT   PTCLDY    70  66  87 NW5       30.18R
SELINSGROVE    PTCLDY    66  66 100 CALM      30.18R
FT INDIANTOWN  CLOUDY    65  65  99 NE2       30.17R
CAPITAL CITY   CLEAR     69  64  84 SW5       30.17R
HARRISBURG     PTCLDY    71  68  90 N3        30.16R
YORK           CLEAR     64  62  93 CALM      30.18R
$$

PAZ038>040-043-044-047-048-054-055-060>062-067>071-291200-
EASTERN PENNSYLVANIA

CITY           SKY/WX    TMP DP  RH WIND       PRES   REMARKS
SCRANTON       CLOUDY    73  66  78 W6        30.18R
MOUNT POCONO   CLOUDY    67  32  27 NW7       30.21R
ALLENTOWN      PTCLDY    71  64  78 W5        30.15R
QUAKERTOWN*    MOSUNNY   68  63  83 CALM      30.17R
READING        CLEAR     69  64  84 CALM      30.15R
LANCASTER      PTCLDY    69  66  90 CALM      30.17R
COATESVILLE      N/A     68  64  88 W3        30.19R
POTTSTOWN      PTCLDY    66  64  93 CALM      30.17S
BLUE BELL      CLEAR     68  64  88 CALM      30.15S
DOYLESTOWN     PTCLDY    70  65  84 CALM      30.15R
WILLOW GROVE   NOT AVBL
NORTH PHILA    PTCLDY    72  67  84 W3        30.16R
PHILADELPHIA   PTCLDY    74  66  76 W8        30.15R
$$




USA.gov is the U.S. government's official web portal to all federal, state and local government web resources and services.